Location: Table Mountain
(47.2500°N, 120.5778°W)
Time: 15:28:06
(UTC-07:00)

ISS - Pass Details

Date: 09 October 2017
Orbit: 401 x 408 km, 51.6° (Epoch: 18 October)

Event Time Altitude Azimuth Distance (km) Brightness Sun altitude
Rises 20:38:56 0° 294° (WNW) 2,323 1.4 -23.3°
Reaches altitude 10° 20:41:02 10° 290° (WNW) 1,462 0.1 -23.7°
Enters shadow 20:43:13 36° 269° (W) 658 -2.3 -24.0°
